Theta_e
352 350 348 346 345 344 341 339 338 336 334 333 333 331 328 326 325 322 321 320 320 319 318 320 320 319 318 320 320 320 316 314 319 319 320 320 321 322 320 323 324 325 324
345 342 340 339 338 337 336 335 332 327 325 323 321 320 317 320 318 317 315 314 313 312 312 313 314 316 317 317 316 313 311 311 311 312 311 312 312 312 314 317 320 324 324
338 336 332 330 328 325 323 322 321 321 319 317 316 315 314 313 313 312 310 308 306 305 306 310 311 313 313 311 310 310 309 308 307 308 309 310 311 311 311 312 312 313 314
331 329 327 325 323 321 318 317 315 315 314 314 313 313 312 309 308 307 307 307 306 305 303 309 312 310 309 309 309 307 307 306 306 306 306 307 307 306 307 307 306 306 307
326 323 321 318 317 316 316 315 315 314 313 312 311 310 309 308 306 306 306 304 304 306 309 311 309 309 308 307 306 306 305 305 305 305 305 305 305 305 306 306 305 305 304
321 319 318 317 316 316 315 314 314 312 311 310 309 308 307 305 304 305 304 307 308 309 310 309 309 307 306 305 304 303 301 303 305 305 306 305 306 306 306 306 305 304 303
319 318 317 317 315 313 312 310 310 309 308 309 308 307 304 303 302 303 306 306 306 307 307 307 306 306 305 304 302 301 303 303 304 305 304 304 304 304 304 304 304 304 304
316 313 311 311 310 310 309 308 308 308 309 308 307 306 304 301 300 303 304 305 305 305 306 307 306 303 302 301 301 302 302 303 303 303 303 303 304 304 304 304 304 304 304
309 309 308 309 308 308 308 309 309 308 307 306 305 304 302 300 300 300 302 302 303 303 303 303 302 301 301 301 302 302 302 303 303 304 304 304 304 304 304 304 304 304 304
307 307 307 307 307 309 308 308 307 306 305 304 303 303 302 300 299 299 299 299 300 301 302 302 301 301 301 301 302 301 300 300 301 302 303 302 303 303 303 303 303 302 302
306 306 306 308 308 307 306 306 305 305 305 304 304 302 302 299 298 297 297 297 298 299 300 299 300 300 301 301 301 301 301 300 300 302 302 302 301 300 301 301 302 302 301
306 306 308 307 306 305 305 305 305 304 304 304 304 303 299 298 297 297 297 297 298 299 299 299 300 300 301 301 299 299 298 298 297 297 296 297 297 297 297 298 298 299 299
306 305 305 304 304 304 304 303 303 304 304 304 303 302 300 297 297 296 296 297 298 298 300 300 300 299 299 298 296 295 295 295 295 294 294 294 294 294 294 295 295 296 296
305 304 303 302 301 300 300 300 300 300 301 300 299 298 296 295 295 294 295 296 297 299 299 298 296 296 296 295 294 293 293 293 293 293 292 292 292 292 293 293 294 294 295
304 302 302 301 299 297 295 294 295 294 297 297 295 295 294 293 293 294 294 295 297 297 296 295 295 294 294 293 292 291 292 292 292 292 292 291 291 291 291 292 292 293 294
304 303 301 298 296 294 293 292 292 293 293 294 294 294 292 293 294 294 294 295 296 295 295 294 293 292 292 292 292 292 292 292 292 292 291 290 290 290 290 291 292 293 293
302 301 301 299 297 295 294 293 292 292 293 293 293 293 293 293 294 294 294 293 294 293 293 292 292 292 292 292 292 293 293 292 291 291 290 290 290 290 290 291 292 293 294
300 301 301 301 300 299 297 295 295 295 293 293 293 293 293 293 293 293 292 292 292 292 292 293 293 293 293 292 291 291 291 290 290 290 290 289 290 290 290 292 293 294 295
300 301 301 301 300 300 299 298 298 297 296 295 295 294 294 293 293 293 293 293 293 293 294 294 293 292 291 290 290 290 289 289 289 289 289 289 290 290 292 293 294 297 297
299 300 300 300 299 299 298 297 297 297 296 296 296 296 295 294 294 294 294 294 294 294 293 293 291 291 289 288 288 287 287 287 287 288 288 288 289 291 292 294 297 297 298
299 299 299 299 299 299 298 297 297 294 293 294 295 293 294 295 295 294 294 294 294 293 292 291 289 288 287 286 286 286 286 287 287 287 288 289 290 291 292 295 297 297 298
298 299 299 300 300 299 299 298 298 295 294 294 294 295 294 294 294 294 293 293 293 291 291 289 288 285 284 284 283 284 284 286 287 288 289 290 292 292 294 297 297 297 297
298 299 300 300 300 300 299 299 297 297 295 294 294 294 293 293 293 293 292 292 291 290 290 289 287 285 283 282 282 283 284 285 287 287 288 291 291 293 294 295 297 297 296
298 299 299 300 298 296 296 296 295 295 294 294 294 293 292 292 291 291 291 291 290 289 289 288 287 286 283 282 282 282 284 285 286 287 289 289 290 291 292 294 295 297 296
297 298 298 297 296 295 295 294 294 294 294 293 292 292 291 291 290 290 290 290 290 289 288 287 287 286 283 282 281 282 283 284 285 286 287 287 288 290 292 294 294 296 295
297 297 296 296 295 294 294 294 293 293 292 291 290 290 290 289 289 289 288 288 288 288 287 286 286 285 282 281 281 281 282 283 284 284 285 286 287 289 290 292 293 294 293
Wind_Speed
37 33 35 35 35 33 30 26 25 23 22 22 21 19 14 12 9 10 12 12 13 14 15 16 15 15 15 12 12 13 17 18 7 15 19 21 22 23 25 20 15 20 19
39 38 36 37 37 36 34 32 30 29 26 24 22 21 20 14 11 9 10 10 12 13 14 15 15 13 11 9 10 13 14 16 16 11 19 24 23 25 22 19 21 18 20
38 40 33 35 38 37 34 32 30 27 25 21 18 17 13 14 11 11 10 11 13 15 14 14 16 13 7 10 11 13 15 17 19 16 15 21 22 20 24 19 20 19 15
39 37 35 32 34 35 34 31 28 24 23 21 17 15 12 11 12 12 13 16 17 16 13 15 10 10 12 12 13 15 16 19 19 18 18 18 20 27 23 23 27 29 29
38 37 35 37 36 34 31 28 26 24 21 18 19 15 13 12 14 14 16 16 12 11 12 11 15 15 14 14 15 16 18 17 18 15 15 16 17 22 21 22 19 24 25
40 35 36 34 32 31 28 24 21 19 17 15 14 14 15 15 13 14 12 11 13 15 10 8 7 15 17 15 14 16 13 14 17 12 12 14 16 17 20 20 20 17 6
35 32 31 28 30 28 24 21 19 17 16 16 17 16 17 16 14 11 12 13 12 13 12 10 10 13 13 15 18 15 12 12 12 12 14 16 19 23 23 19 18 18 19
29 26 27 30 28 24 22 20 18 19 21 22 18 15 16 17 17 13 12 11 13 14 10 7 10 12 15 18 17 14 14 13 15 17 17 18 17 20 19 19 22 23 22
28 27 26 25 24 22 21 19 18 25 23 20 15 14 15 17 19 15 12 11 12 15 13 15 15 16 17 17 15 14 16 17 19 16 14 16 16 18 16 19 18 18 18
28 25 22 20 21 22 22 23 22 22 21 17 15 14 13 16 19 21 13 14 12 15 11 14 16 18 17 14 12 15 19 25 23 21 23 22 21 20 20 19 17 16 19
24 23 23 22 23 21 21 20 17 18 17 13 13 13 12 14 18 18 16 16 15 12 13 14 15 15 15 15 12 15 18 22 23 21 20 19 20 22 22 22 23 17 19
23 23 25 22 20 17 17 16 14 16 16 11 12 13 14 16 13 11 11 13 13 11 11 10 10 13 14 18 21 17 19 20 21 19 21 21 23 24 26 27 27 27 30
24 27 24 22 19 16 17 15 16 14 14 17 15 14 14 9 13 12 9 12 10 11 12 12 15 18 18 18 22 22 21 21 20 19 20 21 23 26 27 26 29 28 31
26 22 21 23 22 18 15 14 16 17 16 16 16 16 13 12 13 17 17 15 13 14 17 16 17 18 19 19 21 22 20 19 20 19 20 22 23 23 24 24 27 30 29
22 21 20 18 18 21 18 16 17 15 13 15 14 12 10 13 13 14 18 20 18 18 16 19 19 17 18 19 21 21 20 19 23 23 22 23 23 23 24 25 24 25 20
19 17 19 19 19 19 23 24 22 21 17 14 13 13 14 14 12 13 16 17 17 15 17 17 16 15 15 15 17 22 22 21 24 22 21 21 22 24 26 26 23 21 22
17 17 20 18 19 19 18 21 21 17 17 18 16 16 14 15 16 15 14 16 16 18 17 13 12 12 13 15 18 23 25 25 23 21 21 22 24 25 26 25 25 24 25
15 14 13 13 14 15 14 15 15 15 14 14 16 15 20 23 17 17 17 19 18 15 12 10 12 16 20 24 26 27 26 26 26 22 24 25 25 25 26 26 25 25 25
14 8 7 10 16 17 15 12 13 13 12 11 8 6 9 17 18 14 13 18 17 17 19 17 22 23 24 25 25 25 25 25 27 25 24 26 28 27 27 27 28 28 28
6 10 14 18 16 17 17 16 13 11 12 10 6 5 6 8 12 10 10 11 15 20 22 21 22 22 22 24 24 24 26 26 28 29 29 30 29 26 26 27 29 28 26
9 12 13 13 13 16 17 17 13 15 13 13 11 10 14 16 16 15 15 16 16 18 20 19 21 22 22 24 25 25 26 28 30 32 32 33 32 31 29 25 26 28 25
13 11 14 10 13 14 15 17 17 18 17 14 15 18 18 19 17 14 15 16 16 17 18 15 20 22 22 23 25 26 27 29 30 33 34 35 36 34 31 25 24 28 28
9 9 8 14 15 15 15 13 16 19 16 17 19 19 17 18 16 14 14 15 15 16 17 14 19 22 23 24 25 26 26 28 29 31 33 32 34 32 33 32 25 26 29
11 6 7 17 13 21 22 21 22 22 21 21 20 18 16 17 16 16 15 15 15 15 16 16 17 22 24 24 26 27 24 24 24 26 28 29 30 30 33 29 28 26 27
7 5 7 12 18 20 20 21 22 22 23 22 21 19 18 18 15 13 16 16 16 15 16 17 17 21 24 24 25 26 26 24 23 24 25 27 30 30 32 30 34 25 28
6 5 20 21 22 24 24 23 23 22 22 21 20 19 17 17 17 13 14 16 16 15 15 15 17 19 23 23 25 26 26 26 26 26 27 26 30 32 33 29 34 26 26
Wind_Direction
143 143 139 136 137 133 127 128 127 121 118 113 108 104 97 87 83 78 73 64 57 42 31 26 20 14 16 16 10 14 12 14 350 332 332 339 340 336 332 317 302 274 260
125 122 119 124 124 124 122 125 123 115 112 108 104 97 86 90 93 80 63 44 28 18 10 7 4 359 3 1 2 6 12 1 0 332 332 339 343 346 357 357 353 307 285
116 116 116 117 118 117 117 114 113 111 103 97 94 87 88 82 74 55 37 23 13 5 353 348 345 347 28 21 24 28 10 359 356 349 335 343 346 356 360 355 349 346 359
112 114 110 111 116 117 112 107 104 103 99 90 87 90 83 78 60 37 15 4 352 341 341 353 37 59 59 40 34 26 9 358 353 348 343 342 345 339 345 350 343 339 334
111 108 108 114 114 112 109 109 105 100 101 99 89 93 86 64 40 20 7 356 2 9 20 83 68 61 54 35 20 3 347 341 340 337 333 330 333 335 336 334 334 332 329
106 107 112 114 113 109 107 107 107 103 97 96 94 92 74 58 35 17 30 49 47 54 46 48 30 20 24 18 1 349 340 336 328 322 320 319 323 330 327 327 324 325 325
107 112 119 118 113 109 105 103 100 98 99 100 99 89 74 52 33 48 67 52 36 28 22 10 30 17 3 356 350 352 356 353 357 2 354 336 324 324 323 317 310 308 297
106 105 105 110 110 109 107 104 103 101 103 97 93 81 67 56 43 59 69 52 40 37 28 56 57 34 12 360 358 1 2 1 348 341 332 330 335 334 337 327 318 310 301
90 96 104 111 108 108 105 104 101 106 102 96 93 81 73 58 41 50 55 48 51 45 52 64 44 22 7 2 8 15 2 356 348 346 348 344 341 340 342 338 326 317 310
94 99 105 106 106 104 101 99 101 101 98 93 91 80 77 63 43 38 47 45 55 48 52 34 24 12 3 6 18 12 10 355 349 347 348 346 343 341 340 329 320 318 319
106 103 109 106 104 103 103 98 99 101 100 111 109 104 92 64 51 42 43 45 45 42 30 17 4 358 12 12 10 10 5 356 358 350 333 340 349 343 336 334 329 310 315
104 102 108 102 96 94 102 108 116 114 114 119 136 117 96 75 50 37 53 45 32 41 29 15 13 4 16 19 28 21 9 10 2 357 350 344 342 337 331 327 324 312 309
104 104 100 103 105 103 109 102 99 99 102 109 111 112 108 59 31 43 56 46 48 38 38 30 28 30 39 32 17 17 16 7 2 356 348 339 334 328 325 323 322 316 314
112 112 113 106 104 102 100 105 96 84 85 84 83 76 79 45 48 57 51 49 52 49 40 46 39 31 32 24 18 12 11 7 360 347 337 332 328 328 325 324 321 323 319
113 113 115 112 113 103 94 88 97 84 90 90 84 76 70 65 53 52 45 39 51 59 52 42 34 26 23 20 11 14 9 360 356 346 339 336 333 329 326 326 323 319 312
111 125 130 122 123 116 109 95 88 87 90 95 97 81 80 74 68 68 55 60 66 63 59 48 36 29 22 8 357 358 1 354 354 350 344 339 334 329 326 327 327 323 315
121 117 131 133 137 132 120 114 108 96 92 86 87 83 82 79 77 75 66 59 70 71 67 52 33 16 6 358 352 356 353 6 358 350 347 340 335 331 330 330 329 328 324
126 129 134 147 150 150 143 135 128 118 108 97 91 86 84 78 79 73 74 66 66 53 36 16 9 7 16 25 17 12 11 3 357 349 345 341 338 332 328 331 331 325 323
136 131 131 142 127 143 148 136 141 136 130 123 105 110 104 88 75 72 69 63 49 34 21 37 46 37 30 19 16 12 6 1 356 347 343 340 338 334 332 333 331 332 331
141 125 126 126 130 127 123 117 117 119 110 137 129 81 144 97 85 64 62 74 49 43 41 57 46 37 26 19 17 10 6 2 356 353 349 344 338 333 327 334 342 337 336
147 138 141 144 148 145 139 136 140 117 109 117 119 92 98 103 86 69 64 62 60 53 44 59 43 35 24 19 17 10 8 8 7 3 357 351 346 339 335 334 344 346 342
165 169 168 168 144 147 154 159 158 146 125 112 104 92 93 91 84 73 68 64 65 60 49 58 41 34 26 22 19 15 10 8 7 6 4 0 359 352 344 335 346 355 353
190 191 193 165 171 171 174 166 137 146 141 123 106 97 94 86 78 74 70 66 67 63 51 50 37 29 24 23 24 21 14 11 9 6 1 3 2 355 357 353 354 358 1
177 199 165 160 142 115 115 123 117 113 109 107 106 101 97 87 78 67 66 70 65 66 54 41 31 27 20 21 22 23 21 17 14 13 10 6 358 3 3 2 3 6 3
180 179 178 156 133 127 120 117 114 112 107 104 101 98 91 86 82 70 63 64 63 63 55 38 28 20 17 20 20 20 21 23 23 19 20 14 12 14 9 12 8 15 12
194 154 127 127 126 123 118 114 115 114 107 102 99 95 92 84 78 72 62 61 59 59 47 41 21 13 14 19 19 19 19 23 26 26 24 19 19 18 13 12 13 17 21